Regional Weather Roundup
Issued by NWS

Home | Current Version | Previous Version | Text Only | Print | Product List | Glossary On
Versions: 1 2 3 4 5 6 7 8 9 10 11 12 13 14 15 16 17 18 19 20 21 22 23 24 25 26 27 28 29 30 31 32 33 34 35 36 37 38 39 40 41 42 43 44 45 46 47 48 49 50
000
ASUS43 KLOT 201610
RWRIL

ILLINOIS REGIONAL WEATHER ROUNDUP
NATIONAL WEATHER SERVICE CHICAGO/ROMEOVILLE IL
1100 AM CDT WED AUG 20 2014

NOTE: "FAIR" INDICATES FEW OR NO CLOUDS BELOW 12,000 FEET WITH NO
SIGNIFICANT WEATHER AND/OR OBSTRUCTIONS TO VISIBILITY.

* THESE STATIONS ARE NOT UNDER NWS QUALITY CONTROL. THEY ALSO MAY NOT
  REPORT WEATHER SUCH AS PRECIPITATION OR FOG.

ILZ001-002-007-009-015-016-024-201700-
NORTHWEST ILLINOIS

CITY           SKY/WX    TMP DP  RH WIND       PRES   REMARKS
MOLINE         CLOUDY    74  67  78 CALM      29.92R
STERLING*      CLOUDY    81  68  65 W9        29.92S HX  83
SAVANNA*       CLOUDY    80  64  58 W5        29.90S HX  82
$$

ILZ003-004-008-010-011-017-018-201700-
NORTH CENTRAL ILLINOIS

CITY           SKY/WX    TMP DP  RH WIND       PRES   REMARKS
ROCKFORD       PTSUNNY   80  67  64 W8        29.91R HX  82
FREEPORT*      PTSUNNY   78  71  78 W9        29.93R HX  80
ROCHELLE*      PTSUNNY   79  68  69 SW12      29.93R HX  81
DE KALB*       MOSUNNY   78  66  68 SW14      29.93R
PERU*          CLOUDY    78  67  66 SW9       29.94S HX  80
$$

ILZ005-006-012>014-019>023-201700-
NORTHEAST ILLINOIS

CITY           SKY/WX    TMP DP  RH WIND       PRES   REMARKS
CHICAGO-OHARE  PTSUNNY   80  63  55 SW8       29.89R HX  81
CHICAGO-MIDWAY PTSUNNY   82  66  58 W9        29.88F HX  84
AURORA         MOSUNNY   81  66  60 SW14      29.92R HX  83
LANSING*       SUNNY     81  65  57 W8        29.90R HX  83
JOLIET*        MOSUNNY   79  65  62 SW9       29.93R HX  81
WAUKEGAN       SUNNY     80  63  55 SW7       29.87S HX  81
DUPAGE AIRPORT SUNNY     81  66  60 SW13      29.90R HX  83
KANKAKEE*      MOSUNNY   80  68  65 SW9       29.95R HX  83
WHEELING       SUNNY     81  63  54 W7        29.89S HX  82
MORRIS*        PTSUNNY   79  68  68 SW10G16   29.94R HX  82
ROMEOVILLE*    MOSUNNY   78  64  61 SW9G16    29.92R HX  80
NORTHERLY ISL    N/A     80  61  52 W9          N/A  HX  81
$$

LMZ740>746-201700-
SOUTHERN LAKE MICHIGAN

STATION/POSITION SKY/WX   TEMP    WIND        PRES    VSBY  WAVE
                          AIR SEA DIR/SP/G                  HT/PER
                          (F)     (DEG/KT/KT) (MB)    (MI)  (FT/S)
SOUTHERN BUOY              68 67  280/  2/  4 1011.7R         0
WAUKEGAN HARBOR            78     290/  3/  9   N/A
HARRISON CRIB              76     130/  4/  5   N/A
BURNHAM HARBOR             80     250/  9       N/A
CALUMET HARBOR             81     250/  5/  9 1010.9R
BURNS HARBOR               74     260/  1/  2   N/A
MICHIGAN CITY              71     240/  5/  5   N/A
MICHIGAN CITY 6N           72 71  250/  4/  6   N/A           1
ST. JOSEPH                 70 70  220/  4/  8   N/A           1/ 2
$$

ILZ025>027-034>036-040-047-049-050-058-095>099-201700-
WEST-CENTRAL ILLINOIS

CITY           SKY/WX    TMP DP  RH WIND       PRES   REMARKS
QUINCY         CLOUDY    74  72  93 E6        29.96R
GALESBURG*     CLOUDY    70  68  93 CALM      29.92R
MACOMB*        CLOUDY    68  68 100 S5        29.95R
JACKSONVILLE*  CLOUDY    72  70  93 E9        29.98R
PITTSFIELD*    CLOUDY    76  73  88 NE9       29.97R
$$

ILZ028>032-037-038-041>044-048-051>054-059>061-201700-
CENTRAL ILLINOIS

CITY           SKY/WX    TMP DP  RH WIND       PRES   REMARKS
PONTIAC        CLOUDY    79  70  73 SW6       29.96R HX  81
DECATUR        CLOUDY    73  70  90 NW5       29.97R
PEORIA         LGT RAIN  73  68  84 E3        29.93F
LACON*         CLOUDY    76  68  76 S6        29.93F
LINCOLN*       CLOUDY    72  70  92 S5        29.96R
SPRINGFIELD    TSTM      69  67  93 E6        29.97F FOG
TAYLORVILLE    TSTM      68  66  94 NW31G45   30.05R
$$

ILZ033-039-045-046-055>057-062-063-201700-
EAST-CENTRAL ILLINOIS

CITY           SKY/WX    TMP DP  RH WIND       PRES   REMARKS
CHAMPAIGN      CLOUDY    76  70  82 SW7       29.97R
DANVILLE*      MOSUNNY   79  69  71 SW8       29.94R HX  81
RANTOUL*       CLOUDY    78  69  72 SW5       29.97R HX  80
MATTOON        LGT RAIN  75  72  90 W9        29.98R
PARIS*         PTSUNNY   80  75  84 SW5       29.97R THUNDER HX  86
$$

ILZ079-100>102-201700-
SOUTHWEST ILLINOIS

CITY           SKY/WX    TMP DP  RH WIND       PRES   REMARKS
ALTON          CLOUDY    77  75  94 CALM      29.96R
BELLEVILLE     CLOUDY    79  75  89 E3        29.96R HX  83
CAHOKIA*       PTSUNNY   83  73  72 S3        29.96R HX  89
SPARTA*        PTSUNNY   80  74  82 CALM      29.97R HX  85
$$

ILZ064>066-069>071-074>076-080>082-084>086-088>090-092>094-201700-
SOUTH-CENTRAL ILLINOIS

CITY           SKY/WX    TMP DP  RH WIND       PRES   REMARKS
CARBONDALE     CLOUDY    81  73  76 S7        29.96S HX  86
CAIRO*         CLOUDY    87  76  70 SW7       29.98R HX  97
MARION         PTSUNNY   81  73  78 SW7       29.98R HX  85
MT. VERNON     CLOUDY    75  70  83 CALM      29.96S
CENTRALIA*     CLOUDY    78  71  80 CALM      29.96R HX  80
SALEM*         CLOUDY    76  74  93 CALM      29.96R
$$

ILZ067-068-072-073-078-083-087-091-201700-
SOUTHEAST ILLINOIS

CITY           SKY/WX    TMP DP  RH WIND       PRES   REMARKS
LAWRENCEVILLE  CLOUDY    82  73  74 SW3       29.94F HX  87
FLORA*         CLOUDY    74  73  95 SW6       29.96R
FAIRFIELD*     CLOUDY    75  73  94 CALM      29.96R
HARRISBURG*    CLOUDY    80  77  90 S6        29.97S HX  85
ROBINSON*      CLOUDY    82  75  80 SW5       29.95S HX  88
CARMI*         CLOUDY    81  77  89 CALM      29.97R HX  88
$$

ABBREVIATIONS USED IN REMARKS
   TC - TEMPERATURE IN CELSIUS
  WCI - WIND CHILL INDEX
   HX - HEAT INDEX
  VSB - VISIBILITY
$$



USA.gov is the U.S. government's official web portal to all federal, state and local government web resources and services.